DW7346 Weather Reports


Display with metric or nautical units.
time (UTC)temp
F
wind
direction
speed
MPH
gust
MPH
rain 1hr
in
rain 24hr
in
rain mn
in
humidity
%
barometer
mb
20260503060111 60 214 0.0 0.0 0.00 0.00 0.00 72 1017.9
20260503054547 60 214 0.0 0.0 0.00 0.00 0.00 72 1017.8
20260503053047 60 214 0.0 0.0 0.00 0.00 0.00 72 1017.8
20260503051547 60 214 0.0 0.0 0.00 0.00 0.00 73 1017.7
20260503050042 60 214 0.0 0.0 0.00 0.00 0.00 74 1017.6
20260503044609 60 214 0.0 0.0 0.00 0.00 0.00 75 1017.6
20260503043041 60 214 0.0 0.0 0.00 0.00 0.00 76 1017.6
20260503041541 60 214 0.0 0.0 0.00 0.00 0.00 76 1017.6
20260503040039 60 214 0.0 0.0 0.00 0.00 0.00 75 1017.6
20260503034539 60 214 0.0 0.0 0.00 0.00 0.00 72 1017.6
20260503033040 61 214 0.0 0.0 0.00 0.00 0.00 72 1017.6
20260503031540 62 214 0.0 0.0 0.00 0.00 0.00 70 1017.4
20260503030041 63 214 0.0 0.0 0.00 0.00 0.00 67 1017.3
20260503024537 64 214 0.0 0.0 0.00 0.00 0.00 66 1017.2
20260503023041 65 214 0.0 0.0 0.00 0.00 0.00 63 1017.1
20260503021536 66 214 0.0 0.0 0.00 0.00 0.00 61 1017.0
20260503020037 67 214 0.0 0.0 0.00 0.00 0.00 59 1016.8
20260503014543 68 214 0.0 0.0 0.00 0.00 0.00 56 1016.8
20260503013035 70 214 0.0 0.0 0.00 0.00 0.00 54 1016.7
20260503011534 71 214 0.0 0.0 0.00 0.00 0.00 53 1016.6
20260503010034 72 214 0.0 0.0 0.00 0.00 0.00 52 1016.5
20260503004534 73 214 0.0 4.0 0.00 0.00 0.00 49 1016.6
20260503003040 74 224 0.0 3.0 0.00 0.00 0.00 48 1016.5
20260503001532 75 229 0.0 3.0 0.00 0.00 0.00 46 1016.5
20260503000039 75 228 2.0 7.0 0.00 0.00 0.00 46 1016.5
20260502234547 76 223 2.0 8.0 0.00 0.00 0.00 47 1016.5
20260502233027 76 221 3.0 7.0 0.00 0.00 0.00 46 1016.7
20260502231531 76 295 2.0 5.0 0.00 0.00 0.00 46 1016.7
20260502230028 76 223 1.0 5.0 0.00 0.00 0.00 47 1016.8
20260502224526 75 194 2.0 5.0 0.00 0.00 0.00 45 1016.8
20260502223035 76 239 2.0 5.0 0.00 0.00 0.00 44 1016.9
20260502221521 76 359 0.0 4.0 0.00 0.00 0.00 46 1017.0
20260502220020 75 268 0.0 3.0 0.00 0.00 0.00 44 1017.1
20260502214520 77 285 0.0 5.0 0.00 0.00 0.00 43 1017.2
20260502213018 76 202 0.0 5.0 0.00 0.00 0.00 44 1017.3
20260502211518 76 112 2.0 7.0 0.00 0.00 0.00 43 1017.5
20260502210015 76 183 2.0 6.0 0.00 0.00 0.00 42 1017.8
20260502204515 76 269 2.0 8.0 0.00 0.00 0.00 40 1018.1
20260502203012 76 34 1.0 6.0 0.00 0.00 0.00 48 1018.2
20260502201511 75 333 2.0 5.0 0.00 0.00 0.00 46 1018.4
20260502200013 75 211 3.0 5.0 0.00 0.00 0.00 41 1018.6
20260502194511 74 255 2.0 5.0 0.00 0.00 0.00 45 1018.7
20260502193006 74 236 2.0 5.0 0.00 0.00 0.00 42 1018.8
20260502191506 74 219 2.0 5.0 0.00 0.00 0.00 44 1019.0
20260502190004 73 252 1.0 6.0 0.00 0.00 0.00 43 1019.2
20260502184502 73 326 2.0 5.0 0.00 0.00 0.00 42 1019.5
20260502183001 73 257 2.0 8.0 0.00 0.00 0.00 45 1019.6
20260502181601 72 16 0.0 6.0 0.00 0.00 0.00 43 1019.7
20260502163103 69 248 0.0 5.0 0.00 0.00 0.00 51 1020.7
20260502161559 69 284 1.0 4.0 0.00 0.00 0.00 47 1020.7
20260502151533 65 20 1.0 3.0 0.00 0.00 0.00 59 1020.4
20260502123002 51 288 0.0 2.0 0.00 0.00 0.00 92 1019.1
20260502121607 50 288 0.0 1.0 0.00 0.00 0.00 92 1018.8
20260502120114 50 275 0.0 1.0 0.00 0.00 0.00 92 1018.5
20260502114603 50 91 0.0 1.0 0.00 0.00 0.00 92 1018.4
20260502113109 50 91 0.0 1.0 0.00 0.00 0.00 92 1018.3
20260502111553 50 91 0.0 1.0 0.00 0.00 0.00 91 1017.9
20260502110052 50 91 0.0 1.0 0.00 0.00 0.00 90 1017.8
20260502104548 51 91 0.0 2.0 0.00 0.00 0.00 91 1017.6
20260502103048 51 91 0.0 1.0 0.00 0.00 0.00 90 1017.6
20260502101547 52 91 0.0 1.0 0.00 0.00 0.00 89 1017.4
20260502071531 54 94 0.0 0.0 0.00 0.00 0.00 86 1017.3
20260502070033 53 94 0.0 0.0 0.00 0.00 0.00 87 1017.4